This demonstration page uses our WeatherBlox Daily Observations layout. Learn more.

39.29038, -76.61219

Hourly Observations for March 8, 2019

Temp ( °F °C ) Dew Point ( °F °C ) Humidity (%) Winds ( mph kmh ) Pressure ( in mb ) Visibility ( mi km ) Precip ( " mm )
12:54 am 00:54 undefined 35 1.7 13 -10.6 40 40 undefined N/A 30.39 1029 N/A 0 0
1:54 am 01:54 undefined 34 1.1 12 -11.1 40 40 undefined N/A 30.39 1029 N/A 0 0
2:54 am 02:54 undefined 33 0.6 14 -10 45 45 undefined N/A 30.37 1029 N/A 0 0
3:54 am 03:54 undefined 32 0 14 -10 47 47 undefined N/A 30.37 1029 N/A 0 0
4:54 am 04:54 undefined 32 0 13 -10.6 45 45 undefined N/A 30.38 1029 N/A 0 0
5:54 am 05:54 undefined 32 0 13 -10.6 45 45 undefined N/A 30.38 1029 N/A 0 0
6:54 am 06:54 undefined 32 0 12 -11.1 43 43 undefined N/A 30.4 1030 N/A 0 0
7:54 am 07:54 undefined 33 0.6 15 -9.4 47 47 undefined N/A 30.42 1030 N/A 0 0
8:54 am 08:54 undefined 34 1.1 17 -8.3 50 50 undefined N/A 30.42 1030 N/A 0 0
9:54 am 09:54 undefined 36 2.2 17 -8.3 46 46 undefined N/A 30.41 1030 N/A 0 0
10:54 am 10:54 undefined 37 2.8 17 -8.3 44 44 undefined N/A 30.41 1030 N/A 0 0
11:54 am 11:54 undefined 38 3.3 17 -8.3 43 43 undefined N/A 30.37 1029 N/A 0 0
12:54 pm 12:54 undefined 40 4.4 21 -6.1 47 47 undefined N/A 30.34 1027 N/A 0 0
1:54 pm 13:54 undefined 38 3.3 25 -3.9 60 60 undefined N/A 30.27 1025 N/A 0 0
2:54 pm 14:54 undefined 37 2.8 29 -1.7 73 73 undefined N/A 30.25 1025 N/A 0 0
3:54 pm 15:54 undefined 36 2.2 31 -0.6 82 82 undefined N/A 30.25 1025 N/A 0.01 0.254
4:54 pm 16:54 undefined 35 1.7 32 0 89 89 undefined N/A 30.23 1024 N/A 0.04 1.016
5:54 pm 17:54 undefined 34 1.1 31 -0.6 89 89 undefined N/A 30.24 1024 N/A 0.03 0.762
6:54 pm 18:54 undefined 35 1.7 32 0 89 89 undefined N/A 30.23 1024 N/A 0.02 0.508
7:54 pm 19:54 undefined 35 1.7 32 0 89 89 undefined N/A 30.23 1024 N/A 0 0
8:54 pm 20:54 undefined 35 1.7 32 0 89 89 undefined N/A 30.23 1024 N/A 0 0
9:54 pm 21:54 undefined 35 1.7 32 0 89 89 undefined N/A 30.23 1024 N/A 0 0
10:54 pm 22:54 undefined 35 1.7 33 0.6 93 93 undefined N/A 30.23 1024 N/A 0 0
11:54 pm 23:54 undefined 35 1.7 33 0.6 93 93 undefined N/A 30.23 1024 N/A 0 0

Powered by AerisWeather